Weather History for CWCL - December, 2013

Change the Weather History Date:

Monday, December 9, 2013

  Actual Average Record
Temperature  
Mean Temperature 10 °F -  
Max Temperature 18 °F 26 °F 45 °F (2014)
Min Temperature 2 °F 17 °F 2 °F (2013)
Degree Days  
Heating Degree Days 55    
Moisture  
Dew Point 4 °F    
Average Humidity 66    
Maximum Humidity 73    
Minimum Humidity 50    
Precipitation  
Precipitation 0.00 in - - ()
Sea Level Pressure  
Sea Level Pressure 30.35 in    
Wind  
Wind Speed 4 mph ()    
Max Wind Speed 8 mph    
Max Gust Speed -    
Visibility 9.0 miles    
Events      
Averages and records for this station are not official NWS values.
T = Trace of Precipitation, MM = Missing Value Source: Averaged Metar Reports

Daily Weather History Graph

Daily Weather History Graph

Search for Another Location

Airport or City:

Trip Planner

Search our weather history database for the weather conditions in past years. The results will help you decide how hot, cold, wet, or windy it might be!

Date:

Astronomy

Dec. 09, 2013 Rise Set
Actual Time 7:58 AM PST 3:58 PM PST
Civil Twilight 7:18 AM PST 4:38 PM PST
Nautical Twilight 6:36 AM PST 5:20 PM PST
Astronomical Twilight 5:55 AM PST 6:01 PM PST
Moon 12:13 PM PST (12/9) No Moon Set
Length of Visible Light 9h 19m
Length of Day
8h 00m
First Quarter, 52% of the Moon is Illuminated
Dec 9
First Quarter
Dec 17
Full
Dec 25
Last Quarter
Jan 1
New
Jan 7
First Quarter

Hourly Weather History & Observations

Time (PST) Temp. Windchill Dew Point Humidity Pressure Visibility Wind Dir Wind Speed Gust Speed Precip Events Conditions
12:00 AM 6.8 °F -2.0 °F -2.2 °F 67% 30.37 in 9.0 mi South 4.6 mph - N/A   Overcast
1:00 AM 6 °F - -2 °F 57% 30.36 in 9 mi SSW 3.5 mph - -   Overcast
1:00 AM 6.8 °F -3.5 °F -2.2 °F 67% 30.36 in 9.0 mi SSW 5.8 mph - N/A   Overcast
2:00 AM 6.8 °F -5.9 °F -2.2 °F 67% 30.36 in 9.0 mi South 8.1 mph - N/A   Overcast
3:00 AM 6.8 °F - -0.4 °F 72% 30.36 in 9.0 mi SSW 2.3 mph - N/A   Overcast
4:00 AM 8 °F - -0 °F 56% 30.36 in 9 mi South 4.6 mph - -   Overcast
4:00 AM 6.8 °F -2.0 °F -0.4 °F 72% 30.36 in 9.0 mi SSW 4.6 mph - N/A   Overcast
5:00 AM 8.6 °F 0.1 °F -0.4 °F 67% 30.37 in 9.0 mi SSW 4.6 mph - N/A   Overcast
6:00 AM 8.6 °F - 1.4 °F 73% 30.38 in 9.0 mi Calm Calm - N/A   Overcast
7:00 AM 10 °F - 2 °F 57% 30.38 in 9 mi SSW 3.5 mph - -   Overcast
7:00 AM 10.4 °F 4.0 °F 1.4 °F 67% 30.38 in 9.0 mi South 3.5 mph - N/A   Overcast
8:00 AM 10.4 °F 0.8 °F 1.4 °F 67% 30.38 in 9.0 mi South 5.8 mph - N/A   Overcast
9:00 AM 10.4 °F 0.8 °F 3.2 °F 73% 30.39 in 9.0 mi South 5.8 mph - N/A   Overcast
10:00 AM 12 °F - 4 °F 60% 30.39 in 9 mi South 6.9 mph - -   Overcast
10:00 AM 12.2 °F 0.7 °F 5.0 °F 73% 30.39 in 9.0 mi South 8.1 mph - N/A   Overcast
11:00 AM 14.0 °F 5.1 °F 5.0 °F 67% 30.38 in 9.0 mi South 5.8 mph - N/A   Overcast
12:00 PM 14.0 °F 5.1 °F 5.0 °F 67% 30.37 in 9.0 mi South 5.8 mph - N/A   Overcast
1:00 PM 17 °F - 7 °F 50% 30.36 in 9 mi South 4.6 mph - -   Overcast
1:00 PM 15.8 °F 7.2 °F 6.8 °F 68% 30.36 in 9.0 mi South 5.8 mph - N/A   Overcast
2:00 PM 17.6 °F 9.3 °F 6.8 °F 63% 30.35 in 9.0 mi South 5.8 mph - N/A   Partly Cloudy
3:00 PM 15.8 °F 10.2 °F 6.8 °F 68% 30.33 in 9.0 mi South 3.5 mph - N/A   Clear
4:00 PM 14 °F - 6 °F 57% 30.33 in 9 mi South 6.9 mph - -  
4:00 PM 14.0 °F 3.9 °F 5.0 °F 67% 30.33 in 9.0 mi South 6.9 mph - N/A   Partly Cloudy
5:00 PM 15.8 °F 10.2 °F 6.8 °F 68% 30.33 in 9.0 mi South 3.5 mph - N/A   Scattered Clouds
6:00 PM 15.8 °F 7.2 °F 6.8 °F 68% 30.33 in 9.0 mi South 5.8 mph - N/A   Mostly Cloudy
7:00 PM 15 °F - 7 °F 58% 30.32 in 9 mi SSW 3.5 mph - -   Overcast
7:00 PM 15.8 °F 7.2 °F 6.8 °F 68% 30.32 in 9.0 mi South 5.8 mph - N/A   Overcast
8:00 PM 15.8 °F 6.1 °F 6.8 °F 68% 30.31 in 9.0 mi South 6.9 mph - N/A   Scattered Clouds
9:00 PM 14.0 °F 8.2 °F 6.8 °F 73% 30.31 in 9.0 mi SSW 3.5 mph - N/A   Scattered Clouds
10:00 PM 16 °F - 8 °F 57% 30.30 in 9 mi SSW 3.5 mph - -  
10:00 PM 15.8 °F 10.2 °F 6.8 °F 68% 30.30 in 9.0 mi South 3.5 mph - N/A   Partly Cloudy
11:00 PM 15.8 °F - 8.6 °F 73% 30.30 in 9.0 mi Calm Calm - N/A   Partly Cloudy